Time,TemperatureF,DewpointF,PressureIn,WindDirection,WindDirectionDegrees,WindSpeedMPH,WindSpeedGustMPH,Humidity,HourlyPrecipIn,Conditions,Clouds,dailyrainin,SolarRadiationWatts/m^2,SoftwareType,DateUTC
2013-05-11 00:03:00,41.0,35.0,-100.00,NNE,20,2.0,3.0,79,0.00,,,0.24,0.000000,,2013-05-11 04:03:00,
2013-05-11 00:33:00,38.0,34.0,-100.00,NNW,332,0.0,0.0,85,0.00,,,0.24,0.000000,,2013-05-11 04:33:00,
2013-05-11 00:43:00,38.0,34.0,-100.00,NNW,332,0.0,0.0,85,0.00,,,0.24,0.000000,,2013-05-11 04:43:00,
2013-05-11 00:52:00,38.0,34.0,-100.00,NNW,332,0.0,0.0,85,0.00,,,0.24,0.000000,,2013-05-11 04:52:00,
2013-05-11 01:02:00,38.0,34.0,-100.00,NNW,332,0.0,0.0,85,0.00,,,0.24,0.000000,,2013-05-11 05:02:00,
2013-05-11 01:32:00,36.0,33.0,-100.00,NNE,17,3.0,5.0,90,0.00,,,0.22,0.000000,,2013-05-11 05:32:00,
2013-05-11 01:42:00,36.0,33.0,-100.00,NNE,17,3.0,5.0,90,0.00,,,0.22,0.000000,,2013-05-11 05:42:00,
2013-05-11 01:52:00,36.0,33.0,-100.00,NNE,17,3.0,5.0,90,0.00,,,0.22,0.000000,,2013-05-11 05:52:00,
2013-05-11 02:02:00,36.0,33.0,-100.00,NNE,17,3.0,5.0,90,0.00,,,0.22,0.000000,,2013-05-11 06:02:00,
2013-05-11 02:32:00,32.0,29.0,-100.00,North,359,0.0,3.0,90,0.00,,,0.18,0.000000,,2013-05-11 06:32:00,
2013-05-11 02:42:00,32.0,29.0,-100.00,North,359,0.0,3.0,90,0.00,,,0.18,0.000000,,2013-05-11 06:42:00,
2013-05-11 02:53:00,32.0,29.0,-100.00,North,359,0.0,3.0,90,0.00,,,0.18,0.000000,,2013-05-11 06:53:00,
2013-05-11 03:02:00,32.0,29.0,-100.00,North,359,0.0,3.0,90,0.00,,,0.18,0.000000,,2013-05-11 07:02:00,
2013-05-11 03:32:00,28.0,27.0,-100.00,NW,323,0.0,2.0,94,0.00,,,0.15,0.000000,,2013-05-11 07:32:00,
2013-05-11 03:42:00,28.0,27.0,-100.00,NW,323,0.0,2.0,94,0.00,,,0.15,0.000000,,2013-05-11 07:42:00,
2013-05-11 03:52:00,28.0,27.0,-100.00,NW,323,0.0,2.0,94,0.00,,,0.15,0.000000,,2013-05-11 07:52:00,
2013-05-11 04:02:00,28.0,27.0,-100.00,NW,323,0.0,2.0,94,0.00,,,0.15,0.000000,,2013-05-11 08:02:00,
2013-05-11 04:21:00,29.0,28.0,-100.00,SW,219,2.0,3.0,95,0.00,,,0.12,0.000000,,2013-05-11 08:21:00,
2013-05-11 04:32:00,29.0,28.0,-100.00,SW,219,2.0,3.0,95,0.00,,,0.12,0.000000,,2013-05-11 08:32:00,
2013-05-11 04:43:00,29.0,28.0,-100.00,SW,219,2.0,3.0,95,0.00,,,0.12,0.000000,,2013-05-11 08:43:00,
2013-05-11 04:52:00,29.0,28.0,-100.00,SW,219,2.0,3.0,95,0.00,,,0.12,0.000000,,2013-05-11 08:52:00,
2013-05-11 05:01:00,29.0,28.0,-100.00,SW,219,2.0,3.0,95,0.00,,,0.12,0.000000,,2013-05-11 09:01:00,
2013-05-11 05:33:00,27.0,26.0,-100.00,WNW,294,1.0,2.0,95,0.00,,,0.08,0.000000,,2013-05-11 09:33:00,
2013-05-11 05:42:00,27.0,26.0,-100.00,WNW,294,1.0,2.0,95,0.00,,,0.08,0.000000,,2013-05-11 09:42:00,
2013-05-11 05:53:00,27.0,26.0,-100.00,WNW,294,1.0,2.0,95,0.00,,,0.08,0.000000,,2013-05-11 09:53:00,
2013-05-11 06:03:00,27.0,26.0,-100.00,WNW,294,1.0,2.0,95,0.00,,,0.08,0.000000,,2013-05-11 10:03:00,
2013-05-11 06:33:00,27.0,26.0,-100.00,East,85,0.0,0.0,95,0.00,,,0.02,0.000000,,2013-05-11 10:33:00,
2013-05-11 06:42:00,27.0,26.0,-100.00,East,85,0.0,0.0,95,0.00,,,0.02,0.000000,,2013-05-11 10:42:00,
2013-05-11 06:53:00,27.0,26.0,-100.00,East,85,0.0,0.0,95,0.00,,,0.02,0.000000,,2013-05-11 10:53:00,
2013-05-11 07:02:00,27.0,26.0,-100.00,East,85,0.0,0.0,95,0.00,,,0.02,0.000000,,2013-05-11 11:02:00,
2013-05-11 07:32:00,29.0,28.0,-100.00,South,191,0.0,0.0,96,0.00,,,-99.99,17.000000,,2013-05-11 11:32:00,
2013-05-11 07:42:00,29.0,28.0,-100.00,South,191,0.0,0.0,96,0.00,,,-99.99,17.000000,,2013-05-11 11:42:00,
2013-05-11 07:52:00,29.0,28.0,-100.00,South,191,0.0,0.0,96,0.00,,,-99.99,17.000000,,2013-05-11 11:52:00,
2013-05-11 08:01:00,29.0,28.0,-100.00,South,191,0.0,0.0,96,0.00,,,-99.99,17.000000,,2013-05-11 12:01:00,
2013-05-11 08:22:00,35.0,34.0,-100.00,South,180,3.0,4.0,95,0.00,,,-99.99,88.000000,,2013-05-11 12:22:00,
2013-05-11 08:32:00,35.0,34.0,-100.00,South,180,3.0,4.0,95,0.00,,,-99.99,88.000000,,2013-05-11 12:32:00,
2013-05-11 08:42:00,35.0,34.0,-100.00,South,180,3.0,4.0,95,0.00,,,-99.99,88.000000,,2013-05-11 12:42:00,
2013-05-11 08:52:00,35.0,34.0,-100.00,South,180,3.0,4.0,95,0.00,,,-99.99,88.000000,,2013-05-11 12:52:00,
2013-05-11 09:02:00,35.0,34.0,-100.00,South,180,3.0,4.0,95,0.00,,,-99.99,88.000000,,2013-05-11 13:02:00,
2013-05-11 09:32:00,42.0,36.0,-100.00,West,264,5.0,9.0,78,0.00,,,-99.99,263.000000,,2013-05-11 13:32:00,
2013-05-11 09:42:00,42.0,36.0,-100.00,West,264,5.0,9.0,78,0.00,,,-99.99,263.000000,,2013-05-11 13:42:00,
2013-05-11 09:52:00,42.0,36.0,-100.00,West,264,5.0,9.0,78,0.00,,,-99.99,263.000000,,2013-05-11 13:52:00,
2013-05-11 10:02:00,42.0,36.0,-100.00,West,264,5.0,9.0,78,0.00,,,-99.99,263.000000,,2013-05-11 14:02:00,
2013-05-11 10:32:00,45.0,33.0,-100.00,SW,229,8.0,13.0,62,0.00,,,0.00,436.000000,,2013-05-11 14:32:00,
2013-05-11 10:42:00,45.0,33.0,-100.00,SW,229,8.0,13.0,62,0.00,,,0.00,436.000000,,2013-05-11 14:42:00,
2013-05-11 10:52:00,45.0,33.0,-100.00,SW,229,8.0,13.0,62,0.00,,,0.00,436.000000,,2013-05-11 14:52:00,
2013-05-11 11:01:00,45.0,33.0,-100.00,SW,229,8.0,13.0,62,0.00,,,0.00,436.000000,,2013-05-11 15:01:00,
2013-05-11 11:32:00,44.0,34.0,-100.00,SW,233,7.0,14.0,67,0.00,,,0.00,172.000000,,2013-05-11 15:32:00,
2013-05-11 11:43:00,44.0,34.0,-100.00,SW,233,7.0,14.0,67,0.00,,,0.00,172.000000,,2013-05-11 15:43:00,
2013-05-11 11:53:00,44.0,34.0,-100.00,SW,233,7.0,14.0,67,0.00,,,0.00,172.000000,,2013-05-11 15:53:00,
2013-05-11 12:03:00,44.0,34.0,-100.00,SW,233,7.0,14.0,67,0.00,,,0.00,172.000000,,2013-05-11 16:03:00,
2013-05-11 12:33:00,46.0,34.0,-100.00,SW,229,5.0,9.0,63,0.00,,,0.00,316.000000,,2013-05-11 16:33:00,
2013-05-11 12:42:00,46.0,34.0,-100.00,SW,229,5.0,9.0,63,0.00,,,0.00,316.000000,,2013-05-11 16:42:00,
2013-05-11 12:53:00,46.0,34.0,-100.00,SW,229,5.0,9.0,63,0.00,,,0.00,316.000000,,2013-05-11 16:53:00,
2013-05-11 13:02:00,46.0,34.0,-100.00,SW,229,5.0,9.0,63,0.00,,,0.00,316.000000,,2013-05-11 17:02:00,
2013-05-11 14:32:00,35.0,32.0,-100.00,NW,326,6.0,12.0,88,-99.99,,,0.09,83.000000,,2013-05-11 18:32:00,
2013-05-11 14:42:00,35.0,32.0,-100.00,NW,326,6.0,12.0,88,-99.99,,,0.09,83.000000,,2013-05-11 18:42:00,
2013-05-11 14:52:00,35.0,32.0,-100.00,NW,326,6.0,12.0,88,-99.99,,,0.09,83.000000,,2013-05-11 18:52:00,
2013-05-11 15:02:00,35.0,32.0,-100.00,NW,326,6.0,12.0,88,-99.99,,,0.09,83.000000,,2013-05-11 19:02:00,
2013-05-11 15:22:00,33.0,32.0,-100.00,NNW,329,7.0,15.0,95,0.03,,,0.12,62.000000,,2013-05-11 19:22:00,
2013-05-11 15:32:00,33.0,32.0,-100.00,NNW,329,7.0,15.0,95,0.03,,,0.12,62.000000,,2013-05-11 19:32:00,
2013-05-11 15:42:00,33.0,32.0,-100.00,NNW,329,7.0,15.0,95,0.03,,,0.12,62.000000,,2013-05-11 19:42:00,
2013-05-11 15:53:00,33.0,32.0,-100.00,NNW,329,7.0,15.0,95,0.03,,,0.12,62.000000,,2013-05-11 19:53:00,
2013-05-11 16:02:00,33.0,32.0,-100.00,NNW,329,7.0,15.0,95,0.03,,,0.12,62.000000,,2013-05-11 20:02:00,
2013-05-11 16:32:00,33.0,32.0,-100.00,NNW,330,8.0,14.0,96,0.00,,,0.12,96.000000,,2013-05-11 20:32:00,
2013-05-11 16:42:00,33.0,32.0,-100.00,NNW,330,8.0,14.0,96,0.00,,,0.12,96.000000,,2013-05-11 20:42:00,
2013-05-11 16:52:00,33.0,32.0,-100.00,NNW,330,8.0,14.0,96,0.00,,,0.12,96.000000,,2013-05-11 20:52:00,
2013-05-11 17:02:00,33.0,32.0,-100.00,NNW,330,8.0,14.0,96,0.00,,,0.12,96.000000,,2013-05-11 21:02:00,
2013-05-11 17:22:00,33.0,31.0,-100.00,NNW,329,9.0,20.0,94,0.04,,,0.16,163.000000,,2013-05-11 21:22:00,
2013-05-11 17:33:00,33.0,31.0,-100.00,NNW,329,9.0,20.0,94,0.04,,,0.16,163.000000,,2013-05-11 21:33:00,
2013-05-11 17:43:00,33.0,31.0,-100.00,NNW,329,9.0,20.0,94,0.04,,,0.16,163.000000,,2013-05-11 21:43:00,
2013-05-11 17:53:00,33.0,31.0,-100.00,NNW,329,9.0,20.0,94,0.04,,,0.16,163.000000,,2013-05-11 21:53:00,
2013-05-11 18:02:00,33.0,31.0,-100.00,NNW,329,9.0,20.0,94,0.04,,,0.16,163.000000,,2013-05-11 22:02:00,
2013-05-11 18:23:00,34.0,31.0,-100.00,NNW,332,8.0,18.0,90,0.08,,,0.24,158.000000,,2013-05-11 22:23:00,
2013-05-11 18:33:00,34.0,31.0,-100.00,NNW,332,8.0,18.0,90,0.08,,,0.24,158.000000,,2013-05-11 22:33:00,
2013-05-11 18:43:00,34.0,31.0,-100.00,NNW,332,8.0,18.0,90,0.08,,,0.24,158.000000,,2013-05-11 22:43:00,
2013-05-11 18:52:00,34.0,31.0,-100.00,NNW,332,8.0,18.0,90,0.08,,,0.24,158.000000,,2013-05-11 22:52:00,
2013-05-11 19:02:00,34.0,31.0,-100.00,NNW,332,8.0,18.0,90,0.08,,,0.24,158.000000,,2013-05-11 23:02:00,
2013-05-11 19:22:00,34.0,32.0,-100.00,NNW,328,9.0,17.0,93,0.05,,,0.29,64.000000,,2013-05-11 23:22:00,
2013-05-11 19:32:00,34.0,32.0,-100.00,NNW,328,9.0,17.0,93,0.05,,,0.29,64.000000,,2013-05-11 23:32:00,
2013-05-11 19:42:00,34.0,32.0,-100.00,NNW,328,9.0,17.0,93,0.05,,,0.29,64.000000,,2013-05-11 23:42:00,
2013-05-11 19:52:00,34.0,32.0,-100.00,NNW,328,9.0,17.0,93,0.05,,,0.29,64.000000,,2013-05-11 23:52:00,
2013-05-11 20:01:00,34.0,32.0,-100.00,NNW,328,9.0,17.0,93,0.05,,,0.29,64.000000,,2013-05-12 00:01:00,
2013-05-11 20:21:00,35.0,33.0,-100.00,NNW,332,8.0,18.0,91,0.04,,,0.33,80.000000,,2013-05-12 00:21:00,
2013-05-11 20:32:00,35.0,33.0,-100.00,NNW,332,8.0,18.0,91,0.04,,,0.33,80.000000,,2013-05-12 00:32:00,
2013-05-11 20:42:00,35.0,33.0,-100.00,NNW,332,8.0,18.0,91,0.04,,,0.33,80.000000,,2013-05-12 00:42:00,
2013-05-11 20:52:00,35.0,33.0,-100.00,NNW,332,8.0,18.0,91,0.04,,,0.33,80.000000,,2013-05-12 00:52:00,
2013-05-11 21:01:00,35.0,33.0,-100.00,NNW,332,8.0,18.0,91,0.04,,,0.33,80.000000,,2013-05-12 01:01:00,
2013-05-11 21:21:00,35.0,32.0,-100.00,NNW,329,7.0,15.0,87,0.00,,,0.33,14.000000,,2013-05-12 01:21:00,
2013-05-11 21:32:00,35.0,32.0,-100.00,NNW,329,7.0,15.0,87,0.00,,,0.33,14.000000,,2013-05-12 01:32:00,
2013-05-11 21:42:00,35.0,32.0,-100.00,NNW,329,7.0,15.0,87,0.00,,,0.33,14.000000,,2013-05-12 01:42:00,
2013-05-11 21:52:00,35.0,32.0,-100.00,NNW,329,7.0,15.0,87,0.00,,,0.33,14.000000,,2013-05-12 01:52:00,
2013-05-11 22:01:00,35.0,32.0,-100.00,NNW,329,7.0,15.0,87,0.00,,,0.33,14.000000,,2013-05-12 02:01:00,
2013-05-11 22:22:00,35.0,31.0,-100.00,NW,316,7.0,14.0,85,0.00,,,0.33,0.000000,,2013-05-12 02:22:00,
2013-05-11 22:32:00,35.0,31.0,-100.00,NW,316,7.0,14.0,85,0.00,,,0.33,0.000000,,2013-05-12 02:32:00,
2013-05-11 22:42:00,35.0,31.0,-100.00,NW,316,7.0,14.0,85,0.00,,,0.33,0.000000,,2013-05-12 02:42:00,
2013-05-11 22:52:00,35.0,31.0,-100.00,NW,316,7.0,14.0,85,0.00,,,0.33,0.000000,,2013-05-12 02:52:00,
2013-05-11 23:01:00,35.0,31.0,-100.00,NW,316,7.0,14.0,85,0.00,,,0.33,0.000000,,2013-05-12 03:01:00,
2013-05-11 23:22:00,35.0,31.0,-100.00,NW,309,7.0,14.0,86,0.00,,,0.33,0.000000,,2013-05-12 03:22:00,
2013-05-11 23:33:00,35.0,31.0,-100.00,NW,309,7.0,14.0,86,0.00,,,0.33,0.000000,,2013-05-12 03:33:00,
2013-05-11 23:43:00,35.0,31.0,-100.00,NW,309,7.0,14.0,86,0.00,,,0.33,0.000000,,2013-05-12 03:43:00,
2013-05-11 23:53:00,35.0,31.0,-100.00,NW,309,7.0,14.0,86,0.00,,,0.33,0.000000,,2013-05-12 03:53:00,